Time,TemperatureF,DewpointF,PressureIn,WindDirection,WindDirectionDegrees,WindSpeedMPH,WindSpeedGustMPH,Humidity,HourlyPrecipIn,Conditions,Clouds,dailyrainin,SoftwareType,DateUTC
2013-05-11 00:00:00,51.0,47.0,30.03,North,-999,-999.0,-999.0,88,-99.99,,,-99.99,,2013-05-11 05:00:00,
2013-05-11 00:02:00,51.0,48.0,30.01,North,-999,-999.0,-999.0,87,-99.99,,,-99.99,,2013-05-11 05:02:00,
2013-05-11 00:12:00,51.0,47.0,30.02,North,-999,-999.0,-999.0,86,-99.99,,,-99.99,,2013-05-11 05:12:00,
2013-05-11 00:21:00,51.0,47.0,30.02,North,-999,-999.0,-999.0,86,-99.99,,,-99.99,,2013-05-11 05:21:00,
2013-05-11 00:32:00,51.0,47.0,30.02,North,-999,-999.0,-999.0,88,-99.99,,,-99.99,,2013-05-11 05:32:00,
2013-05-11 00:42:00,51.0,47.0,30.03,North,-999,-999.0,-999.0,88,-99.99,,,-99.99,,2013-05-11 05:42:00,
2013-05-11 00:52:00,51.0,47.0,30.03,North,-999,-999.0,-999.0,88,-99.99,,,-99.99,,2013-05-11 05:52:00,
2013-05-11 01:00:00,50.0,47.0,30.06,North,-999,-999.0,-999.0,89,-99.99,,,-99.99,,2013-05-11 06:00:00,
2013-05-11 01:12:00,50.0,47.0,30.05,North,-999,-999.0,-999.0,88,-99.99,,,-99.99,,2013-05-11 06:12:00,
2013-05-11 01:21:00,50.0,47.0,30.05,North,-999,-999.0,-999.0,88,-99.99,,,-99.99,,2013-05-11 06:21:00,
2013-05-11 01:32:00,50.0,46.0,30.06,North,-999,-999.0,-999.0,88,-99.99,,,-99.99,,2013-05-11 06:32:00,
2013-05-11 01:42:00,50.0,47.0,30.06,North,-999,-999.0,-999.0,89,-99.99,,,-99.99,,2013-05-11 06:42:00,
2013-05-11 01:52:00,50.0,47.0,30.06,North,-999,-999.0,-999.0,89,-99.99,,,-99.99,,2013-05-11 06:52:00,
2013-05-11 02:12:00,49.0,46.0,30.05,North,-999,-999.0,-999.0,88,-99.99,,,-99.99,,2013-05-11 07:12:00,
2013-05-11 02:21:00,49.0,46.0,30.05,North,-999,-999.0,-999.0,88,-99.99,,,-99.99,,2013-05-11 07:21:00,
2013-05-11 02:32:00,49.0,46.0,30.05,North,-999,-999.0,-999.0,88,-99.99,,,-99.99,,2013-05-11 07:32:00,
2013-05-11 02:42:00,49.0,46.0,30.04,North,-999,-999.0,-999.0,88,-99.99,,,-99.99,,2013-05-11 07:42:00,
2013-05-11 02:52:00,49.0,46.0,30.04,North,-999,-999.0,-999.0,88,-99.99,,,-99.99,,2013-05-11 07:52:00,
2013-05-11 03:01:00,49.0,45.0,30.05,North,-999,-999.0,-999.0,88,-99.99,,,-99.99,,2013-05-11 08:01:00,
2013-05-11 03:12:00,48.0,45.0,30.05,North,-999,-999.0,-999.0,88,-99.99,,,-99.99,,2013-05-11 08:12:00,
2013-05-11 03:21:00,48.0,45.0,30.05,North,-999,-999.0,-999.0,88,-99.99,,,-99.99,,2013-05-11 08:21:00,
2013-05-11 03:32:00,48.0,44.0,30.06,North,-999,-999.0,-999.0,87,-99.99,,,-99.99,,2013-05-11 08:32:00,
2013-05-11 03:42:00,47.0,43.0,30.05,North,-999,-999.0,-999.0,87,-99.99,,,-99.99,,2013-05-11 08:42:00,
2013-05-11 03:52:00,47.0,43.0,30.05,North,-999,-999.0,-999.0,87,-99.99,,,-99.99,,2013-05-11 08:52:00,
2013-05-11 04:01:00,47.0,43.0,30.06,North,-999,-999.0,-999.0,88,-99.99,,,-99.99,,2013-05-11 09:01:00,
2013-05-11 04:11:00,47.0,44.0,30.06,North,-999,-999.0,-999.0,89,-99.99,,,-99.99,,2013-05-11 09:11:00,
2013-05-11 04:21:00,47.0,44.0,30.06,North,-999,-999.0,-999.0,89,-99.99,,,-99.99,,2013-05-11 09:21:00,
2013-05-11 04:32:00,48.0,45.0,30.06,North,-999,-999.0,-999.0,90,-99.99,,,-99.99,,2013-05-11 09:32:00,
2013-05-11 04:42:00,48.0,45.0,30.05,North,-999,-999.0,-999.0,90,-99.99,,,-99.99,,2013-05-11 09:42:00,
2013-05-11 04:52:00,48.0,45.0,30.05,North,-999,-999.0,-999.0,90,-99.99,,,-99.99,,2013-05-11 09:52:00,
2013-05-11 05:03:00,48.0,45.0,30.05,North,-999,-999.0,-999.0,89,-99.99,,,-99.99,,2013-05-11 10:03:00,
2013-05-11 05:12:00,48.0,45.0,30.04,North,-999,-999.0,-999.0,89,-99.99,,,-99.99,,2013-05-11 10:12:00,
2013-05-11 05:22:00,48.0,45.0,30.04,North,-999,-999.0,-999.0,89,-99.99,,,-99.99,,2013-05-11 10:22:00,
2013-05-11 05:33:00,48.0,45.0,30.04,North,-999,-999.0,-999.0,89,-99.99,,,-99.99,,2013-05-11 10:33:00,
2013-05-11 05:42:00,48.0,45.0,30.04,North,-999,-999.0,-999.0,89,-99.99,,,-99.99,,2013-05-11 10:42:00,
2013-05-11 05:52:00,48.0,45.0,30.04,North,-999,-999.0,-999.0,89,-99.99,,,-99.99,,2013-05-11 10:52:00,
2013-05-11 06:00:00,47.0,45.0,30.03,North,-999,-999.0,-999.0,90,-99.99,,,-99.99,,2013-05-11 11:00:00,
2013-05-11 06:02:00,47.0,44.0,30.04,North,-999,-999.0,-999.0,88,-99.99,,,-99.99,,2013-05-11 11:02:00,
2013-05-11 06:12:00,46.0,43.0,30.03,North,-999,-999.0,-999.0,87,-99.99,,,-99.99,,2013-05-11 11:12:00,
2013-05-11 06:21:00,46.0,43.0,30.03,North,-999,-999.0,-999.0,87,-99.99,,,-99.99,,2013-05-11 11:21:00,
2013-05-11 06:32:00,46.0,43.0,30.03,North,-999,-999.0,-999.0,89,-99.99,,,-99.99,,2013-05-11 11:32:00,
2013-05-11 06:42:00,47.0,45.0,30.03,North,-999,-999.0,-999.0,90,-99.99,,,-99.99,,2013-05-11 11:42:00,
2013-05-11 06:51:00,47.0,45.0,30.03,North,-999,-999.0,-999.0,90,-99.99,,,-99.99,,2013-05-11 11:51:00,
2013-05-11 07:11:00,47.0,44.0,30.05,North,-999,-999.0,-999.0,89,-99.99,,,-99.99,,2013-05-11 12:11:00,
2013-05-11 07:22:00,47.0,44.0,30.05,North,-999,-999.0,-999.0,89,-99.99,,,-99.99,,2013-05-11 12:22:00,
2013-05-11 07:32:00,48.0,45.0,30.06,North,-999,-999.0,-999.0,90,-99.99,,,-99.99,,2013-05-11 12:32:00,
2013-05-11 07:42:00,48.0,46.0,30.06,North,-999,-999.0,-999.0,90,-99.99,,,-99.99,,2013-05-11 12:42:00,
2013-05-11 07:51:00,48.0,46.0,30.06,North,-999,-999.0,-999.0,90,-99.99,,,-99.99,,2013-05-11 12:51:00,
2013-05-11 08:02:00,50.0,47.0,30.06,North,-999,-999.0,-999.0,91,-99.99,,,-99.99,,2013-05-11 13:02:00,
2013-05-11 08:11:00,51.0,48.0,30.06,North,-999,-999.0,-999.0,91,-99.99,,,-99.99,,2013-05-11 13:11:00,
2013-05-11 08:21:00,51.0,48.0,30.06,North,-999,-999.0,-999.0,91,-99.99,,,-99.99,,2013-05-11 13:21:00,
2013-05-11 08:32:00,52.0,50.0,30.07,North,-999,-999.0,-999.0,91,-99.99,,,-99.99,,2013-05-11 13:32:00,
2013-05-11 08:42:00,53.0,51.0,30.07,North,-999,-999.0,-999.0,91,-99.99,,,-99.99,,2013-05-11 13:42:00,
2013-05-11 08:52:00,53.0,51.0,30.07,North,-999,-999.0,-999.0,91,-99.99,,,-99.99,,2013-05-11 13:52:00,
2013-05-11 09:00:00,59.0,52.0,30.09,North,-999,-999.0,-999.0,77,-99.99,,,-99.99,,2013-05-11 14:00:00,
2013-05-11 09:02:00,54.0,51.0,30.07,North,-999,-999.0,-999.0,88,-99.99,,,-99.99,,2013-05-11 14:02:00,
2013-05-11 09:11:00,55.0,51.0,30.07,North,-999,-999.0,-999.0,87,-99.99,,,-99.99,,2013-05-11 14:11:00,
2013-05-11 09:21:00,55.0,51.0,30.07,North,-999,-999.0,-999.0,87,-99.99,,,-99.99,,2013-05-11 14:21:00,
2013-05-11 09:32:00,58.0,51.0,30.08,North,-999,-999.0,-999.0,80,-99.99,,,-99.99,,2013-05-11 14:32:00,
2013-05-11 09:42:00,59.0,52.0,30.09,North,-999,-999.0,-999.0,77,-99.99,,,-99.99,,2013-05-11 14:42:00,
2013-05-11 09:51:00,59.0,52.0,30.09,North,-999,-999.0,-999.0,77,-99.99,,,-99.99,,2013-05-11 14:51:00,
2013-05-11 10:00:00,63.0,51.0,30.09,North,-999,-999.0,-999.0,64,-99.99,,,-99.99,,2013-05-11 15:00:00,
2013-05-11 10:11:00,61.0,50.0,30.09,North,-999,-999.0,-999.0,66,-99.99,,,-99.99,,2013-05-11 15:11:00,
2013-05-11 10:21:00,61.0,50.0,30.09,North,-999,-999.0,-999.0,66,-99.99,,,-99.99,,2013-05-11 15:21:00,
2013-05-11 10:32:00,62.0,51.0,30.09,North,-999,-999.0,-999.0,66,-99.99,,,-99.99,,2013-05-11 15:32:00,
2013-05-11 10:43:00,63.0,51.0,30.09,North,-999,-999.0,-999.0,64,-99.99,,,-99.99,,2013-05-11 15:43:00,
2013-05-11 10:53:00,63.0,51.0,30.09,North,-999,-999.0,-999.0,64,-99.99,,,-99.99,,2013-05-11 15:53:00,
2013-05-11 11:00:00,67.0,49.0,30.08,North,-999,-999.0,-999.0,53,-99.99,,,-99.99,,2013-05-11 16:00:00,
2013-05-11 11:12:00,65.0,53.0,30.07,North,-999,-999.0,-999.0,63,-99.99,,,-99.99,,2013-05-11 16:12:00,
2013-05-11 11:23:00,65.0,53.0,30.07,North,-999,-999.0,-999.0,63,-99.99,,,-99.99,,2013-05-11 16:23:00,
2013-05-11 11:30:00,68.0,49.0,30.08,North,-999,-999.0,-999.0,51,-99.99,,,-99.99,,2013-05-11 16:30:00,
2013-05-11 11:33:00,66.0,48.0,30.08,North,-999,-999.0,-999.0,51,-99.99,,,-99.99,,2013-05-11 16:33:00,
2013-05-11 11:42:00,67.0,49.0,30.08,North,-999,-999.0,-999.0,53,-99.99,,,-99.99,,2013-05-11 16:42:00,
2013-05-11 11:52:00,67.0,49.0,30.08,North,-999,-999.0,-999.0,53,-99.99,,,-99.99,,2013-05-11 16:52:00,
2013-05-11 12:00:00,69.0,50.0,30.08,North,-999,-999.0,-999.0,52,-99.99,,,-99.99,,2013-05-11 17:00:00,
2013-05-11 12:12:00,68.0,49.0,30.08,North,-999,-999.0,-999.0,51,-99.99,,,-99.99,,2013-05-11 17:12:00,
2013-05-11 12:22:00,68.0,49.0,30.08,North,-999,-999.0,-999.0,51,-99.99,,,-99.99,,2013-05-11 17:22:00,
2013-05-11 12:42:00,69.0,50.0,30.08,North,-999,-999.0,-999.0,52,-99.99,,,-99.99,,2013-05-11 17:42:00,
2013-05-11 12:52:00,69.0,50.0,30.08,North,-999,-999.0,-999.0,52,-99.99,,,-99.99,,2013-05-11 17:52:00,
2013-05-11 13:00:00,68.0,52.0,30.08,North,-999,-999.0,-999.0,56,-99.99,,,-99.99,,2013-05-11 18:00:00,
2013-05-11 13:12:00,70.0,51.0,30.08,North,-999,-999.0,-999.0,51,-99.99,,,-99.99,,2013-05-11 18:12:00,
2013-05-11 13:21:00,70.0,51.0,30.08,North,-999,-999.0,-999.0,51,-99.99,,,-99.99,,2013-05-11 18:21:00,
2013-05-11 13:32:00,69.0,49.0,30.08,North,-999,-999.0,-999.0,49,-99.99,,,-99.99,,2013-05-11 18:32:00,
2013-05-11 13:42:00,68.0,52.0,30.08,North,-999,-999.0,-999.0,56,-99.99,,,-99.99,,2013-05-11 18:42:00,
2013-05-11 13:51:00,68.0,52.0,30.08,North,-999,-999.0,-999.0,56,-99.99,,,-99.99,,2013-05-11 18:51:00,
2013-05-11 14:11:00,68.0,52.0,30.08,North,-999,-999.0,-999.0,56,-99.99,,,-99.99,,2013-05-11 19:11:00,
2013-05-11 14:21:00,68.0,52.0,30.08,North,-999,-999.0,-999.0,56,-99.99,,,-99.99,,2013-05-11 19:21:00,
2013-05-11 14:32:00,69.0,49.0,30.09,North,-999,-999.0,-999.0,48,-99.99,,,-99.99,,2013-05-11 19:32:00,
2013-05-11 14:42:00,69.0,44.0,30.09,North,-999,-999.0,-999.0,41,-99.99,,,-99.99,,2013-05-11 19:42:00,
2013-05-11 14:52:00,69.0,44.0,30.09,North,-999,-999.0,-999.0,41,-99.99,,,-99.99,,2013-05-11 19:52:00,
2013-05-11 15:02:00,68.0,48.0,30.10,North,-999,-999.0,-999.0,49,-99.99,,,-99.99,,2013-05-11 20:02:00,
2013-05-11 15:12:00,68.0,42.0,30.10,North,-999,-999.0,-999.0,39,-99.99,,,-99.99,,2013-05-11 20:12:00,
2013-05-11 15:22:00,68.0,42.0,30.10,North,-999,-999.0,-999.0,39,-99.99,,,-99.99,,2013-05-11 20:22:00,
2013-05-11 15:32:00,68.0,41.0,30.10,North,-999,-999.0,-999.0,38,-99.99,,,-99.99,,2013-05-11 20:32:00,
2013-05-11 15:42:00,68.0,41.0,30.10,North,-999,-999.0,-999.0,38,-99.99,,,-99.99,,2013-05-11 20:42:00,
2013-05-11 15:52:00,68.0,41.0,30.10,North,-999,-999.0,-999.0,38,-99.99,,,-99.99,,2013-05-11 20:52:00,
2013-05-11 16:02:00,68.0,38.0,30.10,North,-999,-999.0,-999.0,34,-99.99,,,-99.99,,2013-05-11 21:02:00,
2013-05-11 16:11:00,68.0,37.0,30.10,North,-999,-999.0,-999.0,32,-99.99,,,-99.99,,2013-05-11 21:11:00,
2013-05-11 16:21:00,68.0,37.0,30.10,North,-999,-999.0,-999.0,32,-99.99,,,-99.99,,2013-05-11 21:21:00,
2013-05-11 16:33:00,67.0,35.0,30.10,North,-999,-999.0,-999.0,30,-99.99,,,-99.99,,2013-05-11 21:33:00,
2013-05-11 16:43:00,67.0,33.0,30.10,North,-999,-999.0,-999.0,29,-99.99,,,-99.99,,2013-05-11 21:43:00,
2013-05-11 16:52:00,67.0,33.0,30.10,North,-999,-999.0,-999.0,29,-99.99,,,-99.99,,2013-05-11 21:52:00,
2013-05-11 17:02:00,67.0,33.0,30.11,North,-999,-999.0,-999.0,29,-99.99,,,-99.99,,2013-05-11 22:02:00,
2013-05-11 17:13:00,67.0,31.0,30.10,North,-999,-999.0,-999.0,26,-99.99,,,-99.99,,2013-05-11 22:13:00,
2013-05-11 17:23:00,67.0,31.0,30.10,North,-999,-999.0,-999.0,26,-99.99,,,-99.99,,2013-05-11 22:23:00,
2013-05-11 17:33:00,66.0,35.0,30.11,North,-999,-999.0,-999.0,31,-99.99,,,-99.99,,2013-05-11 22:33:00,
2013-05-11 17:42:00,66.0,35.0,30.11,North,-999,-999.0,-999.0,31,-99.99,,,-99.99,,2013-05-11 22:42:00,
2013-05-11 17:52:00,66.0,35.0,30.11,North,-999,-999.0,-999.0,31,-99.99,,,-99.99,,2013-05-11 22:52:00,
2013-05-11 18:00:00,65.0,36.0,30.12,North,-999,-999.0,-999.0,34,-99.99,,,-99.99,,2013-05-11 23:00:00,
2013-05-11 18:02:00,66.0,34.0,30.12,North,-999,-999.0,-999.0,31,-99.99,,,-99.99,,2013-05-11 23:02:00,
2013-05-11 18:12:00,66.0,35.0,30.12,North,-999,-999.0,-999.0,32,-99.99,,,-99.99,,2013-05-11 23:12:00,
2013-05-11 18:22:00,66.0,35.0,30.12,North,-999,-999.0,-999.0,32,-99.99,,,-99.99,,2013-05-11 23:22:00,
2013-05-11 18:32:00,65.0,35.0,30.12,North,-999,-999.0,-999.0,33,-99.99,,,-99.99,,2013-05-11 23:32:00,
2013-05-11 18:42:00,65.0,36.0,30.12,North,-999,-999.0,-999.0,34,-99.99,,,-99.99,,2013-05-11 23:42:00,
2013-05-11 18:52:00,65.0,36.0,30.12,North,-999,-999.0,-999.0,34,-99.99,,,-99.99,,2013-05-11 23:52:00,
2013-05-11 19:00:00,63.0,32.0,30.13,North,-999,-999.0,-999.0,32,-99.99,,,-99.99,,2013-05-12 00:00:00,
2013-05-11 19:11:00,64.0,36.0,30.12,North,-999,-999.0,-999.0,35,-99.99,,,-99.99,,2013-05-12 00:11:00,
2013-05-11 19:21:00,64.0,36.0,30.12,North,-999,-999.0,-999.0,35,-99.99,,,-99.99,,2013-05-12 00:21:00,
2013-05-11 19:32:00,63.0,32.0,30.13,North,-999,-999.0,-999.0,31,-99.99,,,-99.99,,2013-05-12 00:32:00,
2013-05-11 19:42:00,63.0,32.0,30.13,North,-999,-999.0,-999.0,32,-99.99,,,-99.99,,2013-05-12 00:42:00,
2013-05-11 19:52:00,63.0,32.0,30.13,North,-999,-999.0,-999.0,32,-99.99,,,-99.99,,2013-05-12 00:52:00,
2013-05-11 20:11:00,61.0,35.0,30.14,North,-999,-999.0,-999.0,37,-99.99,,,-99.99,,2013-05-12 01:11:00,
2013-05-11 20:21:00,61.0,35.0,30.14,North,-999,-999.0,-999.0,37,-99.99,,,-99.99,,2013-05-12 01:21:00,
2013-05-11 20:32:00,59.0,32.0,30.14,North,-999,-999.0,-999.0,36,-99.99,,,-99.99,,2013-05-12 01:32:00,
2013-05-11 20:42:00,58.0,32.0,30.14,North,-999,-999.0,-999.0,37,-99.99,,,-99.99,,2013-05-12 01:42:00,
2013-05-11 20:52:00,58.0,32.0,30.14,North,-999,-999.0,-999.0,37,-99.99,,,-99.99,,2013-05-12 01:52:00,
2013-05-11 21:01:00,56.0,30.0,30.14,North,-999,-999.0,-999.0,37,-99.99,,,-99.99,,2013-05-12 02:01:00,
2013-05-11 21:11:00,55.0,31.0,30.15,North,-999,-999.0,-999.0,39,-99.99,,,-99.99,,2013-05-12 02:11:00,
2013-05-11 21:22:00,55.0,31.0,30.15,North,-999,-999.0,-999.0,39,-99.99,,,-99.99,,2013-05-12 02:22:00,
2013-05-11 21:32:00,54.0,31.0,30.15,North,-999,-999.0,-999.0,42,-99.99,,,-99.99,,2013-05-12 02:32:00,
2013-05-11 21:42:00,53.0,31.0,30.16,North,-999,-999.0,-999.0,43,-99.99,,,-99.99,,2013-05-12 02:42:00,
2013-05-11 21:52:00,53.0,31.0,30.16,North,-999,-999.0,-999.0,43,-99.99,,,-99.99,,2013-05-12 02:52:00,
2013-05-11 22:01:00,52.0,31.0,30.17,North,-999,-999.0,-999.0,45,-99.99,,,-99.99,,2013-05-12 03:01:00,
2013-05-11 22:11:00,52.0,32.0,30.17,North,-999,-999.0,-999.0,47,-99.99,,,-99.99,,2013-05-12 03:11:00,
2013-05-11 22:22:00,52.0,32.0,30.17,North,-999,-999.0,-999.0,47,-99.99,,,-99.99,,2013-05-12 03:22:00,
2013-05-11 22:33:00,50.0,32.0,30.17,North,-999,-999.0,-999.0,51,-99.99,,,-99.99,,2013-05-12 03:33:00,
2013-05-11 22:43:00,49.0,32.0,30.17,North,-999,-999.0,-999.0,52,-99.99,,,-99.99,,2013-05-12 03:43:00,
2013-05-11 22:53:00,49.0,32.0,30.17,North,-999,-999.0,-999.0,52,-99.99,,,-99.99,,2013-05-12 03:53:00,
2013-05-11 23:00:00,46.0,30.0,30.18,North,-999,-999.0,-999.0,53,-99.99,,,-99.99,,2013-05-12 04:00:00,
2013-05-11 23:12:00,48.0,31.0,30.18,North,-999,-999.0,-999.0,53,-99.99,,,-99.99,,2013-05-12 04:12:00,
2013-05-11 23:22:00,48.0,31.0,30.18,North,-999,-999.0,-999.0,53,-99.99,,,-99.99,,2013-05-12 04:22:00,
2013-05-11 23:33:00,47.0,30.0,30.18,North,-999,-999.0,-999.0,52,-99.99,,,-99.99,,2013-05-12 04:33:00,
2013-05-11 23:43:00,46.0,30.0,30.18,North,-999,-999.0,-999.0,53,-99.99,,,-99.99,,2013-05-12 04:43:00,
2013-05-11 23:52:00,46.0,30.0,30.18,North,-999,-999.0,-999.0,53,-99.99,,,-99.99,,2013-05-12 04:52:00,